PKGDB WILL-WIII

Flight info

Callsign PKGDB
Flight time 0h 41m
Altitude 9500
Route TKG DCT CKG
Aircraft DC3/M-SDF/S

Departure

Time 2026-04-11 08:17
Airport Radin Inten II International Airport (WILL)

Arrival

Time 2026-04-11 08:58
Airport Soekarno-Hatta International Airport (WIII)
Time Latitude Longitude Altitude Speed Heading
2026-04-11 08:04 -5.24521 105.17880 290 ft 0 kts 228°
2026-04-11 08:08 -5.24513 105.17888 290 ft 2 kts 224°
2026-04-11 08:09 -5.24498 105.17896 290 ft 2 kts 189°
2026-04-11 08:09 -5.24483 105.17892 290 ft 2 kts 147°
2026-04-11 08:09 -5.24476 105.17883 290 ft 0 kts 116°
2026-04-11 08:13 -5.24482 105.17893 290 ft 5 kts 109°
2026-04-11 08:13 -5.24481 105.17958 290 ft 12 kts 86°
2026-04-11 08:13 -5.24470 105.18060 290 ft 14 kts 43°
2026-04-11 08:13 -5.24390 105.18021 290 ft 17 kts 321°
2026-04-11 08:14 -5.24276 105.17927 290 ft 24 kts 320°
2026-04-11 08:14 -5.24134 105.17808 290 ft 28 kts 321°
2026-04-11 08:14 -5.23986 105.17683 290 ft 27 kts 319°
2026-04-11 08:14 -5.23841 105.17558 290 ft 26 kts 321°
2026-04-11 08:15 -5.23709 105.17444 290 ft 24 kts 319°
2026-04-11 08:15 -5.23611 105.17353 290 ft 16 kts 66°
2026-04-11 08:15 -5.23668 105.17412 290 ft 6 kts 142°
2026-04-11 08:15 -5.23671 105.17414 290 ft 0 kts 142°
2026-04-11 08:16 -5.23679 105.17420 290 ft 6 kts 141°
2026-04-11 08:16 -5.23770 105.17495 290 ft 36 kts 139°
2026-04-11 08:16 -5.24086 105.17766 291 ft 82 kts 139°
2026-04-11 08:16 -5.24583 105.18143 458 ft 93 kts 139°
2026-04-11 08:17 -5.25110 105.18526 758 ft 95 kts 142°
2026-04-11 08:17 -5.25633 105.18889 1113 ft 89 kts 143°
2026-04-11 08:17 -5.26147 105.19249 1386 ft 91 kts 140°
2026-04-11 08:17 -5.26433 105.19777 1658 ft 88 kts 91°
2026-04-11 08:18 -5.26532 105.20382 1938 ft 89 kts 99°
2026-04-11 08:18 -5.26591 105.20991 2216 ft 89 kts 99°
2026-04-11 08:18 -5.26682 105.21605 2490 ft 88 kts 99°
2026-04-11 08:18 -5.26777 105.22209 2749 ft 88 kts 99°
2026-04-11 08:19 -5.26875 105.22808 2999 ft 87 kts 99°
2026-04-11 08:19 -5.26975 105.23411 3243 ft 87 kts 99°
2026-04-11 08:19 -5.27077 105.24004 3478 ft 87 kts 98°
2026-04-11 08:19 -5.27181 105.24603 3710 ft 87 kts 98°
2026-04-11 08:20 -5.27287 105.25208 3940 ft 87 kts 98°
2026-04-11 08:20 -5.27496 105.25765 4151 ft 89 kts 131°
2026-04-11 08:20 -5.27894 105.26237 4363 ft 88 kts 109°
2026-04-11 08:20 -5.28208 105.26760 4574 ft 89 kts 124°
2026-04-11 08:21 -5.28508 105.27333 4703 ft 97 kts 116°
2026-04-11 08:21 -5.28835 105.27921 4903 ft 97 kts 115°
2026-04-11 08:21 -5.29154 105.28524 5107 ft 97 kts 115°
2026-04-11 08:21 -5.29460 105.29125 5309 ft 97 kts 115°
2026-04-11 08:22 -5.29755 105.29729 5508 ft 96 kts 113°
2026-04-11 08:22 -5.30040 105.30331 5700 ft 96 kts 111°
2026-04-11 08:22 -5.30331 105.30962 5860 ft 100 kts 111°
2026-04-11 08:22 -5.30620 105.31603 6040 ft 102 kts 112°
2026-04-11 08:23 -5.30910 105.32258 6229 ft 102 kts 111°
2026-04-11 08:23 -5.31193 105.32909 6418 ft 102 kts 110°
2026-04-11 08:23 -5.31473 105.33562 6604 ft 102 kts 111°
2026-04-11 08:23 -5.31751 105.34219 6788 ft 102 kts 110°
2026-04-11 08:24 -5.32022 105.34866 6967 ft 101 kts 110°
2026-04-11 08:24 -5.32292 105.35518 7144 ft 101 kts 110°
2026-04-11 08:24 -5.32559 105.36169 7317 ft 101 kts 109°
2026-04-11 08:24 -5.32824 105.36820 7486 ft 100 kts 110°
2026-04-11 08:25 -5.33089 105.37471 7652 ft 100 kts 110°
2026-04-11 08:25 -5.33349 105.38115 7813 ft 100 kts 110°
2026-04-11 08:25 -5.33612 105.38769 7973 ft 100 kts 109°
2026-04-11 08:25 -5.33866 105.39409 8128 ft 100 kts 109°
2026-04-11 08:26 -5.34123 105.40055 8280 ft 99 kts 110°
2026-04-11 08:26 -5.34241 105.40351 8349 ft 99 kts 110°
2026-04-11 08:26 -5.34428 105.40819 8456 ft 99 kts 110°
2026-04-11 08:26 -5.34678 105.41447 8598 ft 99 kts 110°
2026-04-11 08:27 -5.34932 105.42088 8741 ft 99 kts 109°
2026-04-11 08:27 -5.35184 105.42724 8879 ft 99 kts 110°
2026-04-11 08:27 -5.35439 105.43369 9017 ft 99 kts 109°
2026-04-11 08:27 -5.35689 105.44003 9150 ft 98 kts 110°
2026-04-11 08:28 -5.35941 105.44642 9282 ft 98 kts 110°
2026-04-11 08:28 -5.36194 105.45285 9412 ft 98 kts 110°
2026-04-11 08:28 -5.36451 105.45938 9498 ft 104 kts 110°
2026-04-11 08:28 -5.36729 105.46648 9523 ft 117 kts 110°
2026-04-11 08:29 -5.37046 105.47455 9525 ft 132 kts 110°
2026-04-11 08:29 -5.37403 105.48362 9520 ft 145 kts 110°
2026-04-11 08:29 -5.37786 105.49341 9516 ft 154 kts 110°
2026-04-11 08:29 -5.38185 105.50358 9512 ft 161 kts 110°
2026-04-11 08:30 -5.38599 105.51416 9510 ft 166 kts 110°
2026-04-11 08:30 -5.39031 105.52516 9507 ft 169 kts 110°
2026-04-11 08:30 -5.39461 105.53622 9504 ft 172 kts 111°
2026-04-11 08:30 -5.39892 105.54743 9504 ft 173 kts 110°
2026-04-11 08:31 -5.40333 105.55872 9507 ft 174 kts 109°
2026-04-11 08:31 -5.40776 105.56996 9505 ft 175 kts 110°
2026-04-11 08:31 -5.41226 105.58146 9505 ft 176 kts 110°
2026-04-11 08:31 -5.41668 105.59290 9505 ft 176 kts 111°
2026-04-11 08:32 -5.42075 105.60452 9504 ft 177 kts 110°
2026-04-11 08:32 -5.42494 105.61604 9505 ft 177 kts 109°
2026-04-11 08:32 -5.42889 105.62782 9493 ft 177 kts 98°
2026-04-11 08:32 -5.43132 105.63982 9507 ft 176 kts 103°
2026-04-11 08:33 -5.43377 105.65184 9504 ft 177 kts 104°
2026-04-11 08:33 -5.43741 105.66376 9504 ft 177 kts 108°
2026-04-11 08:33 -5.44149 105.67543 9505 ft 177 kts 108°
2026-04-11 08:33 -5.44551 105.68710 9505 ft 177 kts 108°
2026-04-11 08:34 -5.44963 105.69890 9505 ft 177 kts 108°
2026-04-11 08:34 -5.45391 105.71040 9496 ft 178 kts 115°
2026-04-11 08:34 -5.46211 105.71970 9507 ft 178 kts 130°
2026-04-11 08:34 -5.46950 105.72972 9497 ft 178 kts 126°
2026-04-11 08:35 -5.47776 105.73885 9509 ft 178 kts 135°
2026-04-11 08:35 -5.48590 105.74829 9509 ft 178 kts 127°
2026-04-11 08:35 -5.49464 105.75711 9504 ft 179 kts 134°
2026-04-11 08:35 -5.50240 105.76680 9499 ft 179 kts 130°
2026-04-11 08:36 -5.51122 105.77550 9497 ft 179 kts 130°
2026-04-11 08:36 -5.51933 105.78492 9479 ft 180 kts 143°
2026-04-11 08:36 -5.52990 105.79157 9496 ft 179 kts 145°
2026-04-11 08:36 -5.54034 105.79825 9508 ft 179 kts 146°
2026-04-11 08:37 -5.55071 105.80514 9509 ft 179 kts 146°
2026-04-11 08:37 -5.56128 105.81194 9505 ft 179 kts 147°
2026-04-11 08:37 -5.57172 105.81860 9505 ft 180 kts 147°
2026-04-11 08:37 -5.58228 105.82531 9505 ft 180 kts 147°
2026-04-11 08:38 -5.59176 105.83337 9509 ft 178 kts 127°
2026-04-11 08:38 -5.59985 105.84279 9510 ft 178 kts 129°
2026-04-11 08:38 -5.60626 105.85332 9495 ft 177 kts 107°
2026-04-11 08:38 -5.61179 105.86437 9514 ft 177 kts 120°
2026-04-11 08:39 -5.61795 105.87502 9501 ft 178 kts 123°
2026-04-11 08:39 -5.62610 105.88431 9519 ft 177 kts 135°
2026-04-11 08:39 -5.63421 105.89365 9521 ft 177 kts 131°
2026-04-11 08:39 -5.64219 105.90321 9505 ft 178 kts 131°
2026-04-11 08:40 -5.65017 105.91263 9504 ft 178 kts 129°
2026-04-11 08:40 -5.65829 105.92213 9505 ft 178 kts 128°
2026-04-11 08:40 -5.66634 105.93153 9505 ft 179 kts 128°
2026-04-11 08:40 -5.67444 105.94104 9505 ft 179 kts 129°
2026-04-11 08:41 -5.68251 105.95053 9505 ft 179 kts 130°
2026-04-11 08:41 -5.69052 105.95996 9505 ft 179 kts 130°
2026-04-11 08:41 -5.71380 105.98746 9505 ft 179 kts 130°
2026-04-11 08:41 -5.74644 106.02567 9505 ft 179 kts 129°
2026-04-11 08:42 -5.77874 106.06337 9505 ft 179 kts 129°
2026-04-11 08:42 -5.81127 106.10130 9506 ft 179 kts 129°
2026-04-11 08:42 -5.84361 106.13902 9506 ft 179 kts 129°
2026-04-11 08:43 -5.90873 106.21503 9506 ft 179 kts 130°
2026-04-11 08:43 -5.94147 106.25317 9506 ft 179 kts 130°
2026-04-11 08:43 -5.97375 106.29076 9506 ft 179 kts 130°
2026-04-11 08:43 -6.00427 106.32621 9506 ft 179 kts 130°
2026-04-11 08:44 -6.00522 106.32732 9505 ft 179 kts 130°
2026-04-11 08:44 -6.01232 106.33555 9505 ft 179 kts 130°
2026-04-11 08:44 -6.02047 106.34500 9505 ft 179 kts 130°
2026-04-11 08:44 -6.02865 106.35447 9505 ft 179 kts 130°
2026-04-11 08:45 -6.03687 106.36398 9505 ft 179 kts 130°
2026-04-11 08:45 -6.04511 106.37322 9503 ft 179 kts 134°
2026-04-11 08:45 -6.05377 106.38227 9475 ft 181 kts 133°
2026-04-11 08:45 -6.06269 106.39146 9284 ft 184 kts 131°
2026-04-11 08:46 -6.07165 106.40070 9005 ft 190 kts 132°
2026-04-11 08:46 -6.08103 106.41041 8736 ft 194 kts 134°
2026-04-11 08:46 -6.09042 106.42018 8473 ft 196 kts 134°
2026-04-11 08:46 -6.09985 106.42996 8209 ft 195 kts 133°
2026-04-11 08:47 -6.10920 106.43955 7948 ft 194 kts 133°
2026-04-11 08:47 -6.11868 106.44926 7684 ft 194 kts 133°
2026-04-11 08:47 -6.12793 106.45907 7420 ft 193 kts 129°
2026-04-11 08:47 -6.13679 106.46913 7162 ft 193 kts 132°
2026-04-11 08:48 -6.14569 106.47942 6898 ft 193 kts 132°
2026-04-11 08:48 -6.15447 106.48941 6645 ft 193 kts 129°
2026-04-11 08:48 -6.16355 106.49957 6385 ft 193 kts 129°
2026-04-11 08:48 -6.17247 106.50957 6134 ft 193 kts 130°
2026-04-11 08:49 -6.18136 106.51971 5882 ft 194 kts 132°
2026-04-11 08:49 -6.18927 106.53049 5615 ft 193 kts 113°
2026-04-11 08:49 -6.19299 106.54347 5361 ft 192 kts 103°
2026-04-11 08:49 -6.19776 106.55592 5117 ft 193 kts 112°
2026-04-11 08:50 -6.20256 106.56835 4873 ft 193 kts 111°
2026-04-11 08:50 -6.20761 106.58097 4627 ft 193 kts 108°
2026-04-11 08:50 -6.21265 106.59330 4384 ft 192 kts 109°
2026-04-11 08:50 -6.21757 106.60568 4141 ft 191 kts 112°
2026-04-11 08:51 -6.22244 106.61813 3894 ft 191 kts 111°
2026-04-11 08:51 -6.22738 106.63045 3654 ft 191 kts 109°
2026-04-11 08:51 -6.23237 106.64259 3568 ft 182 kts 109°
2026-04-11 08:51 -6.23718 106.65446 3570 ft 183 kts 111°
2026-04-11 08:52 -6.24383 106.67922 3545 ft 187 kts 74°
2026-04-11 08:52 -6.23970 106.69162 3516 ft 191 kts 75°
2026-04-11 08:52 -6.23598 106.70447 3277 ft 196 kts 70°
2026-04-11 08:53 -6.23212 106.71792 3026 ft 200 kts 64°
2026-04-11 08:53 -6.22306 106.72819 2791 ft 198 kts 39°
2026-04-11 08:53 -6.21376 106.73831 2545 ft 200 kts 38°
2026-04-11 08:53 -6.20283 106.74709 2316 ft 201 kts 40°
2026-04-11 08:54 -6.19163 106.75516 2066 ft 198 kts 17°
2026-04-11 08:54 -6.17929 106.75999 2055 ft 190 kts 24°
2026-04-11 08:54 -6.16745 106.76513 2063 ft 182 kts 19°
2026-04-11 08:54 -6.15612 106.77035 2027 ft 179 kts 18°
2026-04-11 08:55 -6.14489 106.77541 1965 ft 172 kts 22°
2026-04-11 08:55 -6.13408 106.78004 1886 ft 168 kts 23°
2026-04-11 08:55 -6.12316 106.78313 1771 ft 162 kts 352°
2026-04-11 08:55 -6.11414 106.77761 1644 ft 152 kts 304°
2026-04-11 08:56 -6.11165 106.76768 1525 ft 149 kts 275°
2026-04-11 08:56 -6.11099 106.75757 1337 ft 151 kts 277°
2026-04-11 08:56 -6.11063 106.74652 947 ft 162 kts 268°
2026-04-11 08:56 -6.11353 106.73570 750 ft 161 kts 245°
2026-04-11 08:57 -6.11740 106.72594 882 ft 151 kts 256°
2026-04-11 08:57 -6.11947 106.71549 759 ft 159 kts 265°
2026-04-11 08:57 -6.12091 106.70384 493 ft 174 kts 259°
2026-04-11 08:57 -6.12441 106.69248 451 ft 172 kts 252°
2026-04-11 08:58 -6.12777 106.68272 288 ft 121 kts 256°
2026-04-11 08:58 -6.13032 106.67467 100 ft 115 kts 254°
2026-04-11 08:58 -6.13279 106.66819 43 ft 80 kts 248°
2026-04-11 08:58 -6.13428 106.66438 42 ft 38 kts 248°
2026-04-11 08:59 -6.13515 106.66217 42 ft 33 kts 249°
2026-04-11 08:59 -6.13601 106.66008 42 ft 29 kts 250°
2026-04-11 08:59 -6.13622 106.65824 42 ft 25 kts 276°
2026-04-11 08:59 -6.13582 106.65686 42 ft 14 kts 324°
2026-04-11 09:00 -6.13514 106.65658 42 ft 9 kts 339°
2026-04-11 09:00 -6.13456 106.65646 42 ft 8 kts 17°
2026-04-11 09:00 -6.13425 106.65698 42 ft 10 kts 71°
2026-04-11 09:00 -6.13394 106.65778 42 ft 14 kts 68°
2026-04-11 09:01 -6.13354 106.65880 42 ft 16 kts 68°
2026-04-11 09:01 -6.13313 106.65984 42 ft 16 kts 69°
2026-04-11 09:01 -6.13270 106.66094 42 ft 17 kts 68°
2026-04-11 09:01 -6.13229 106.66196 42 ft 13 kts 68°
2026-04-11 09:02 -6.13168 106.66236 42 ft 11 kts 342°
2026-04-11 09:02 -6.13099 106.66208 42 ft 11 kts 339°
2026-04-11 09:02 -6.13022 106.66177 42 ft 12 kts 339°
2026-04-11 09:02 -6.12937 106.66144 42 ft 13 kts 338°
2026-04-11 09:03 -6.12845 106.66107 42 ft 14 kts 338°
2026-04-11 09:03 -6.12753 106.66071 42 ft 12 kts 336°
2026-04-11 09:03 -6.12684 106.66042 42 ft 9 kts 337°
2026-04-11 09:03 -6.12655 106.66042 42 ft 3 kts 62°
2026-04-11 09:04 -6.12648 106.66078 42 ft 6 kts 66°
2026-04-11 09:04 -6.12631 106.66119 42 ft 4 kts 68°
2026-04-11 09:04 -6.12627 106.66129 42 ft 0 kts 67°